{"data":{"norad_id":64336,"epoch":"2026-09-20T06:39:13.262976Z","epoch_age_seconds":153489,"freshness":"FRESH","line1":"1 64336U 25124V   26263.27723684  .00014310  00000+0  52845-3 0  9999","line2":"2 64336  43.0028  99.0056 0001486 272.3257  87.7425 15.27585351 71583","mean_motion":15.27585351,"eccentricity":0.0001486,"inclination_deg":43.0028,"raan_deg":99.0056,"arg_perigee_deg":272.3257,"mean_anomaly_deg":87.7425,"bstar":0.00052845,"rev_number":7158,"period_min":94.266418505345,"perigee_km":482.01350339453,"apogee_km":484.0526431403,"semimajor_km":6861.1700732674,"source":"CELESTRAK","updated_at":"2026-09-21T09:00:35.314564Z"}}